CW7664 Weather Reports


time (UTC)temp
C
wind
direction
speed
KPH
gust
KPH
rain 1hr
cm
rain 24hr
cm
rain mn
cm
humidity
%
barometer
mb
20260507040045 17 336 0.0 0.0 0.00 0.00 0.00 72 1015.4
20260507034551 17 306 0.0 0.0 0.00 0.00 0.00 71 1015.1
20260507033045 17 296 0.0 4.8 0.00 0.00 0.00 70 1014.9
20260507031555 17 320 1.6 6.4 0.00 0.00 0.00 70 1014.8
20260507030050 18 311 1.6 6.4 0.00 0.00 0.00 69 1014.6
20260507024544 18 308 0.0 9.7 0.00 0.00 0.00 68 1014.4
20260507023040 18 231 1.6 8.0 0.00 0.00 0.00 65 1014.4
20260507021539 19 270 1.6 6.4 0.00 0.00 0.00 63 1014.3
20260507020039 20 320 1.6 6.4 0.00 0.00 0.00 61 1014.2
20260507014547 20 232 3.2 11.3 0.00 0.00 0.00 60 1014.2
20260507013038 21 331 1.6 9.7 0.00 0.00 0.00 60 1014.2
20260507011538 21 201 3.2 12.9 0.00 0.00 0.00 59 1014.2
20260507010041 21 221 4.8 11.3 0.00 0.00 0.00 58 1014.3
20260507004536 20 184 4.8 14.5 0.00 0.00 0.00 58 1014.4
20260507003038 21 204 6.4 17.7 0.00 0.00 0.00 56 1014.3
20260507001537 21 241 6.4 14.5 0.00 0.00 0.00 55 1014.3
20260507000039 21 178 6.4 16.1 0.00 0.00 0.00 54 1014.2
20260506234534 21 232 8.0 17.7 0.00 0.00 0.00 54 1014.2
20260506233038 21 178 6.4 22.5 0.00 0.00 0.00 54 1014.2
20260506231532 22 234 6.4 19.3 0.00 0.00 0.00 54 1014.3
20260506230032 22 225 8.0 17.7 0.00 0.00 0.00 53 1014.4
20260506224531 22 232 9.7 17.7 0.00 0.00 0.00 52 1014.5
20260506223028 22 226 6.4 16.1 0.00 0.00 0.00 50 1014.7
20260506221526 23 327 6.4 12.9 0.00 0.00 0.00 50 1014.9
20260506220025 23 203 6.4 14.5 0.00 0.00 0.00 48 1015.3
20260506214523 23 187 4.8 16.1 0.00 0.00 0.00 50 1015.4
20260506213021 23 173 4.8 14.5 0.00 0.00 0.00 51 1015.5
20260506211521 23 236 6.4 17.7 0.00 0.00 0.00 51 1015.8
20260506210017 23 215 4.8 12.9 0.00 0.00 0.00 52 1015.8
20260506204520 23 224 6.4 14.5 0.00 0.00 0.00 53 1015.8
20260506203017 23 224 8.0 17.7 0.00 0.00 0.00 53 1016.0
20260506201517 22 232 4.8 16.1 0.00 0.00 0.00 54 1016.1
20260506200013 22 288 3.2 16.1 0.00 0.00 0.00 55 1016.2
20260506194516 22 196 4.8 12.9 0.00 0.00 0.00 55 1016.3
20260506193009 22 228 6.4 17.7 0.00 0.00 0.00 55 1016.4
20260506191507 22 238 6.4 17.7 0.00 0.00 0.00 57 1016.4
20260506190006 22 186 6.4 16.1 0.00 0.00 0.00 56 1016.5
20260506184502 22 189 8.0 14.5 0.00 0.00 0.00 56 1016.5
20260506183101 22 182 6.4 17.7 0.00 0.00 0.00 54 1016.6
20260506181559 22 203 4.8 14.5 0.00 0.00 0.00 53 1016.8
20260506180104 22 225 4.8 11.3 0.00 0.00 0.00 51 1016.8
20260506174555 22 161 1.6 9.7 0.00 0.00 0.00 50 1016.8
20260506173055 22 169 1.6 8.0 0.00 0.00 0.00 51 1016.8
20260506171549 21 211 3.2 9.7 0.00 0.00 0.00 52 1017.0
20260506170053 20 159 1.6 8.0 0.00 0.00 0.00 54 1017.0
20260506164537 20 232 1.6 8.0 0.00 0.00 0.00 54 1017.0
20260506163054 20 192 1.6 4.8 0.00 0.00 0.00 55 1017.0
20260506161530 19 123 1.6 4.8 0.00 0.00 0.00 58 1017.1
20260506160024 18 80 1.6 8.0 0.00 0.00 0.00 62 1017.1
20260506154518 17 138 1.6 6.4 0.00 0.00 0.00 65 1017.1
20260506153014 17 52 1.6 8.0 0.00 0.00 0.00 66 1017.1
20260506151510 16 126 1.6 8.0 0.00 0.00 0.00 69 1017.2
20260506150005 15 39 0.0 4.8 0.00 0.00 0.00 72 1017.2
20260506144501 14 15 1.6 8.0 0.00 0.00 0.00 74 1017.1
20260506143106 13 38 3.2 8.0 0.00 0.00 0.00 77 1017.1
20260506141553 12 79 1.6 6.4 0.00 0.00 0.00 80 1016.9
20260506140048 11 52 3.2 9.7 0.00 0.00 0.00 82 1016.9
20260506134544 11 28 0.0 4.8 0.00 0.00 0.00 82 1016.9
20260506133042 10 36 1.6 4.8 0.00 0.00 0.00 83 1016.8
20260506131541 10 54 0.0 4.8 0.00 0.00 0.00 83 1016.7
20260506130038 10 49 0.0 3.2 0.00 0.00 0.00 83 1016.6
20260506124537 10 69 0.0 3.2 0.00 0.00 0.00 83 1016.4
20260506123037 10 87 0.0 0.0 0.00 0.00 0.00 83 1016.4
20260506121541 10 44 0.0 0.0 0.00 0.00 0.00 83 1016.2
20260506120035 10 36 0.0 0.0 0.00 0.00 0.00 83 1016.2
20260506114542 10 70 0.0 0.0 0.00 0.00 0.00 83 1016.1
20260506113035 10 54 0.0 0.0 0.00 0.00 0.00 83 1016.1
20260506111538 10 26 0.0 0.0 0.00 0.00 0.00 84 1016.0
20260506110033 10 26 0.0 0.0 0.00 0.00 0.00 83 1016.0
20260506104533 10 26 0.0 0.0 0.00 0.00 0.00 83 1016.1
20260506103032 10 26 0.0 0.0 0.00 0.00 0.00 83 1015.9
20260506101533 10 26 0.0 0.0 0.00 0.00 0.00 83 1015.8
20260506100028 10 26 0.0 0.0 0.00 0.00 0.00 83 1016.0
20260506094527 10 26 0.0 0.0 0.00 0.00 0.00 83 1015.9
20260506093030 10 26 0.0 0.0 0.00 0.00 0.00 83 1016.1
20260506091526 10 26 0.0 0.0 0.00 0.00 0.00 83 1016.3
20260506090024 10 26 0.0 0.0 0.00 0.00 0.00 82 1016.3
20260506084522 10 26 0.0 0.0 0.00 0.00 0.00 82 1016.3
20260506083020 11 26 0.0 0.0 0.00 0.00 0.00 82 1016.3
20260506081520 11 26 0.0 0.0 0.00 0.00 0.00 82 1016.3
20260506073017 11 21 0.0 0.0 0.00 0.00 0.00 81 1016.3
20260506071515 11 21 0.0 0.0 0.00 0.00 0.00 81 1016.1
20260506061514 12 19 0.0 0.0 0.00 0.00 0.00 80 1015.4
20260506044600 13 32 0.0 3.2 0.00 0.00 0.00 77 1014.8
20260506043058 14 32 0.0 1.6 0.00 0.00 0.00 76 1014.5
20260506041558 14 21 0.0 1.6 0.00 0.00 0.00 76 1014.5